This is the latest recevied weather packets stored in our database for station/object DB0MI. If no packets are shown the sender has not sent any weather packets the latest 10 day(s).
| Time | Temp. | Humidity | Pressure | Rain* | Wind** | Luminosity | Snow |
|---|---|---|---|---|---|---|---|
| 1777538521 | 12.78° C | 37% | 1026.8 hPa | 0 mm | - | - | - |
| 1777537921 | 12.22° C | 38% | 1027 hPa | 0 mm | - | - | - |
| 1777537321 | 11.67° C | 39% | 1026.9 hPa | 0 mm | - | - | - |
| 1777536721 | 11.11° C | 40% | 1026.9 hPa | 0 mm | - | - | - |
| 1777536121 | 10.56° C | 41% | 1027.1 hPa | 0 mm | - | - | - |
| 1777535521 | 9.44° C | 43% | 1026.7 hPa | 0 mm | - | - | - |
| 1777534921 | 8.89° C | 44% | 1026.9 hPa | 0 mm | - | - | - |
| 1777534321 | 8.33° C | 45% | 1026.9 hPa | 0 mm | - | - | - |
| 1777533721 | 7.78° C | 47% | 1027 hPa | 0 mm | - | - | - |
| 1777533121 | 6.67° C | 48% | 1027 hPa | 0 mm | - | - | - |
| 1777532521 | 5.56° C | 50% | 1026.5 hPa | 0 mm | - | - | - |
| 1777531921 | 4.44° C | 51% | 1026.7 hPa | 0 mm | - | - | - |
| 1777531321 | 4.44° C | 52% | 1026.9 hPa | 0 mm | - | - | - |
| 1777530721 | 3.89° C | 52% | 1026.8 hPa | 0 mm | - | - | - |
| 1777530121 | 3.89° C | 52% | 1026.7 hPa | 0 mm | - | - | - |
| 1777529521 | 3.33° C | 52% | 1026.7 hPa | 0 mm | - | - | - |
| 1777528921 | 3.33° C | 53% | 1026.6 hPa | 0 mm | - | - | - |
| 1777528321 | 2.78° C | 53% | 1026.6 hPa | 0 mm | - | - | - |
| 1777527722 | 2.78° C | 52% | 1026.3 hPa | 0 mm | - | - | - |
| 1777527122 | 2.78° C | 52% | 1026.4 hPa | 0 mm | - | - | - |
| 1777526521 | 2.78° C | 52% | 1026.5 hPa | 0 mm | - | - | - |
| 1777525922 | 2.78° C | 52% | 1026.2 hPa | 0 mm | - | - | - |
| 1777525322 | 2.78° C | 52% | 1026.2 hPa | 0 mm | - | - | - |
| 1777524722 | 2.78° C | 52% | 1026.1 hPa | 0 mm | - | - | - |
| 1777524122 | 2.78° C | 51% | 1026.1 hPa | 0 mm | - | - | - |
* Rain latest hour (hover to see other rain measurements)
** Current wind speed in m/s (hover to see current wind gust speed)